Miscellaneous Local Product
Issued by NWS Hastings, NE

Home | Current Version | Previous Version | Graphics & Text | Print | Product List | Glossary On
Versions: 1 2 3 4 5 6 7 8 9 10 11 12 13 14 15 16 17 18 19 20 21 22 23 24 25 26 27 28 29 30 31 32 33 34 35 36 37 38 39 40 41 42 43 44 45 46 47 48 49 50
076
AXUS43 KGID 062002
MISGRI

GID CWA HOURLY WEATHER ROUNDUP
NATIONAL WEATHER SERVICE HASTINGS NE
200 PM CST TUE DEC 06 2016

NOTE: "FAIR" INDICATES FEW OR NO CLOUDS BELOW 12,000 FEET WITH NO
SIGNIFICANT WEATHER AND/OR OBSTRUCTIONS TO VISIBILITY.

...SOUTH CENTRAL NEBRASKA...

CITY           SKY/WX    TMP DP  RH WIND       PRES   REMARKS
GRAND ISLAND   SUNNY     34   8  33 NW15G31   30.01F WCI  24
HASTINGS       SUNNY     34   7  32 NW14      30.03S WCI  25
KEARNEY        SUNNY     34   7  32 NW14G21   30.02R WCI  24
ORD            SUNNY     31   3  30 NW18G29   29.98F WCI  19
YORK           SUNNY     32   9  37 NW20G26   30.00F WCI  20
AURORA         SUNNY     33   8  34 NW20      30.01F WCI  21
LEXINGTON      SUNNY     35   6  29 NW16      30.01S WCI  26
HOLDREGE       SUNNY     33   6  31 NW15      30.01F WCI  23
HEBRON         SUNNY     36   8  31 NW13      30.04F WCI  28

...NEBRASKA PANHANDLE...

CITY           SKY/WX    TMP DP  RH WIND       PRES   REMARKS
CHADRON        SUNNY     22   6  50 NW17      30.00S WCI   8
ALLIANCE       SUNNY     28   2  32 NW14      29.92F WCI  17
SCOTTSBLUFF    MOSUNNY   29   2  31 NW7       29.94F WCI  22
SIDNEY         SUNNY     28  -3  26 NE7       29.93F WCI  21

...WESTERN AND NORTH CENTRAL NEBRASKA...

CITY           SKY/WX    TMP DP  RH WIND       PRES   REMARKS
VALENTINE      SUNNY     23   3  42 W16G28    29.98F WCI  10
AINSWORTH      SUNNY     26   5  41 NW23      29.97S WCI  11
ONEILL         SUNNY     28   6  39 NW18G39   29.97F WCI  15
BROKEN BOW     SUNNY     31   6  35 NW16      29.98F WCI  20
IMPERIAL       SUNNY     32  -1  24 NW8G17    29.99F WCI  25
NORTH PLATTE   SUNNY     34   5  29 NW9G18    30.00S WCI  27
MCCOOK         SUNNY     34   6  31 NW10      30.03F WCI  26

...EASTERN NEBRASKA...

CITY           SKY/WX    TMP DP  RH WIND       PRES   REMARKS
NORFOLK        SUNNY     30   7  37 W24G33    29.95F WCI  16
SO SIOUX CITY  SUNNY     31  11  43 NW24G32   29.93F WCI  17
TEKAMAH        SUNNY     31  14  49 W18G28    29.98S WCI  19
COLUMBUS       SUNNY     32   9  37 NW24      29.99F WCI  19
ALBION         SUNNY     32   4  30 NW18G29   29.97F WCI  20
OMAHA EPPLEY   SUNNY     35  13  40 NW20G25   29.98F WCI  24
MILLARD        SUNNY     34  12  39 W13G24    29.99R WCI  25
LINCOLN        SUNNY     36   8  31 NW21G30   30.03S WCI  25
NEBRASKA CITY  SUNNY     35   5  28 NW20G25   30.01S WCI  24
BEATRICE       SUNNY     37  12  35 NW18      30.02F WCI  27
FALLS CITY     SUNNY     37  12  35 NW14      30.03F WCI  28

...NORTHERN KANSAS...

CITY           SKY/WX    TMP DP  RH WIND       PRES   REMARKS
GOODLAND       SUNNY     33  -2  22 NW6       29.97F WCI  28
HILL CITY      SUNNY     38   5  25 N8        30.05F WCI  32
NORTON         CLEAR     36   0  21 W12G17    30.03S WCI  27
PHILLIPSBURG   SUNNY     37   7  28 NW10G17   30.06S WCI  30
SMITH CENTER   SUNNY     37   7  28 NW12G17   30.06S WCI  30
BELOIT         SUNNY     37  10  32 NW5       30.05F WCI  34
HAYS           SUNNY     38   5  25 NW13      30.06F WCI  30
RUSSELL        SUNNY     38   6  26 NW10G22   30.04F WCI  31
CONCORDIA      SUNNY     36  12  37 VRB3      30.05F
SALINA         SUNNY     41  14  33 NW12      30.07F
TOPEKA         SUNNY     39  13  34 NW10      30.07F WCI  32



USA.gov is the U.S. government's official web portal to all federal, state and local government web resources and services.